Time,TemperatureF,DewpointF,PressureIn,WindDirection,WindDirectionDegrees,WindSpeedMPH,WindSpeedGustMPH,Humidity,HourlyPrecipIn,Conditions,Clouds,dailyrainin,SoftwareType,DateUTC
2013-02-27 00:00:00,32.7,11.6,30.17,East,81,0.0,0.0,41,0.00,RA,,0.00,WeatherDisplay:10.37,2013-02-27 05:00:00,
2013-02-27 00:01:00,32.7,11.6,30.17,East,81,0.0,0.0,41,0.00,RA,,0.00,WeatherDisplay:10.37,2013-02-27 05:01:00,
2013-02-27 00:06:00,32.7,11.6,30.17,East,81,0.0,0.0,41,0.00,RA,,0.00,WeatherDisplay:10.37,2013-02-27 05:06:00,
2013-02-27 00:11:00,33.1,11.9,30.17,East,81,3.5,3.5,41,0.00,CLR,,0.00,WeatherDisplay:10.37,2013-02-27 05:11:00,
2013-02-27 00:16:00,33.1,11.9,30.17,East,81,2.3,0.0,41,0.00,CLR,,0.00,WeatherDisplay:10.37,2013-02-27 05:16:00,
2013-02-27 00:21:00,33.1,11.9,30.17,East,81,0.0,0.0,41,0.00,CLR,,0.00,WeatherDisplay:10.37,2013-02-27 05:21:00,
2013-02-27 00:26:00,33.1,11.9,30.17,East,81,0.0,0.0,41,0.00,CLR,,0.00,WeatherDisplay:10.37,2013-02-27 05:26:00,
2013-02-27 00:31:00,33.3,12.1,30.17,East,81,0.0,0.0,41,0.00,CLR,,0.00,WeatherDisplay:10.37,2013-02-27 05:31:00,
2013-02-27 00:36:00,33.6,11.8,30.17,East,81,2.3,0.0,40,0.00,CLR,,0.00,WeatherDisplay:10.37,2013-02-27 05:36:00,
2013-02-27 00:41:00,33.8,12.0,30.17,East,81,2.3,2.3,40,0.00,CLR,,0.00,WeatherDisplay:10.37,2013-02-27 05:41:00,
2013-02-27 00:46:00,34.0,10.4,30.17,East,81,2.3,0.0,37,0.00,CLR,,0.00,WeatherDisplay:10.37,2013-02-27 05:46:00,
2013-02-27 00:51:00,34.3,9.5,30.17,North,7,2.3,0.0,35,0.00,CLR,,0.00,WeatherDisplay:10.37,2013-02-27 05:51:00,
2013-02-27 00:56:00,34.3,9.5,30.14,ENE,76,0.0,0.0,35,0.00,CLR,,0.00,WeatherDisplay:10.37,2013-02-27 05:56:00,
2013-02-27 01:01:00,34.5,7.6,30.14,ENE,76,2.3,2.3,32,0.00,CLR,,0.00,WeatherDisplay:10.37,2013-02-27 06:01:00,
2013-02-27 01:06:00,34.7,7.8,30.14,ENE,76,2.3,0.0,32,0.00,CLR,,0.00,WeatherDisplay:10.37,2013-02-27 06:06:00,
2013-02-27 01:11:00,34.7,7.8,30.14,ESE,103,3.5,0.0,32,0.00,CLR,,0.00,WeatherDisplay:10.37,2013-02-27 06:11:00,
2013-02-27 01:16:00,34.9,8.0,30.14,East,85,3.5,3.5,32,0.00,CLR,,0.00,WeatherDisplay:10.37,2013-02-27 06:16:00,
2013-02-27 01:21:00,35.1,8.1,30.14,East,89,3.5,3.5,32,0.00,CLR,,0.00,WeatherDisplay:10.37,2013-02-27 06:21:00,
2013-02-27 01:26:00,35.1,8.1,30.14,ENE,57,2.3,2.7,32,0.00,CLR,,0.00,WeatherDisplay:10.37,2013-02-27 06:26:00,
2013-02-27 01:31:00,35.2,8.3,30.14,East,82,3.5,3.5,32,0.00,CLR,,0.00,WeatherDisplay:10.37,2013-02-27 06:31:00,
2013-02-27 01:36:00,35.4,8.4,30.14,East,83,3.5,3.5,32,0.00,CLR,,0.00,WeatherDisplay:10.37,2013-02-27 06:36:00,
2013-02-27 01:41:00,35.4,8.4,30.11,East,87,3.5,3.5,32,0.00,CLR,,0.00,WeatherDisplay:10.37,2013-02-27 06:41:00,
2013-02-27 01:46:00,35.6,8.6,30.11,East,81,3.5,3.5,32,0.00,CLR,,0.00,WeatherDisplay:10.37,2013-02-27 06:46:00,
2013-02-27 01:51:00,35.6,8.6,30.11,East,90,3.5,3.5,32,0.00,CLR,,0.00,WeatherDisplay:10.37,2013-02-27 06:51:00,
2013-02-27 01:56:00,35.6,8.6,30.11,East,91,3.5,3.5,32,0.00,CLR,,0.00,WeatherDisplay:10.37,2013-02-27 06:56:00,
2013-02-27 02:01:00,35.6,8.6,30.11,East,84,3.5,3.5,32,0.00,CLR,,0.00,WeatherDisplay:10.37,2013-02-27 07:01:00,
2013-02-27 02:06:00,35.8,8.8,30.11,ENE,60,3.5,3.5,32,0.00,CLR,,0.00,WeatherDisplay:10.37,2013-02-27 07:06:00,
2013-02-27 02:11:00,35.8,8.8,30.11,East,84,3.5,3.5,32,0.00,CLR,,0.00,WeatherDisplay:10.37,2013-02-27 07:11:00,
2013-02-27 02:16:00,35.8,8.8,30.11,East,98,3.5,3.5,32,0.00,CLR,,0.00,WeatherDisplay:10.37,2013-02-27 07:16:00,
2013-02-27 02:21:00,36.0,8.9,30.11,East,80,3.5,3.5,32,0.00,CLR,,0.00,WeatherDisplay:10.37,2013-02-27 07:21:00,
2013-02-27 02:26:00,36.0,8.9,30.11,ESE,104,3.5,3.5,32,0.00,CLR,,0.00,WeatherDisplay:10.37,2013-02-27 07:26:00,
2013-02-27 02:31:00,36.0,8.9,30.11,East,89,2.3,2.3,32,0.00,CLR,,0.00,WeatherDisplay:10.37,2013-02-27 07:31:00,
2013-02-27 02:36:00,36.1,9.1,30.11,East,89,3.5,3.5,32,0.00,CLR,,0.00,WeatherDisplay:10.37,2013-02-27 07:36:00,
2013-02-27 02:41:00,36.1,9.1,30.11,East,84,4.6,4.6,32,0.00,CLR,,0.00,WeatherDisplay:10.37,2013-02-27 07:41:00,
2013-02-27 02:46:00,36.1,9.1,30.11,SSE,156,3.5,3.5,32,0.00,CLR,,0.00,WeatherDisplay:10.37,2013-02-27 07:46:00,
2013-02-27 02:51:00,36.1,10.4,30.11,ENE,74,3.5,3.5,34,0.00,CLR,,0.00,WeatherDisplay:10.37,2013-02-27 07:51:00,
2013-02-27 02:56:00,36.1,10.4,30.11,ESE,113,3.5,3.5,34,0.00,CLR,,0.00,WeatherDisplay:10.37,2013-02-27 07:56:00,
2013-02-27 03:01:00,36.1,10.4,30.11,ENE,70,2.3,3.1,34,0.00,CLR,,0.00,WeatherDisplay:10.37,2013-02-27 08:01:00,
2013-02-27 03:06:00,36.3,10.6,30.11,East,85,3.5,3.5,34,0.00,CLR,,0.00,WeatherDisplay:10.37,2013-02-27 08:06:00,
2013-02-27 03:11:00,36.3,12.5,30.08,ENE,63,3.5,3.5,37,0.00,CLR,,0.00,WeatherDisplay:10.37,2013-02-27 08:11:00,
2013-02-27 03:16:00,36.1,14.1,30.08,East,94,3.5,3.5,40,0.00,CLR,,0.00,WeatherDisplay:10.37,2013-02-27 08:16:00,
2013-02-27 03:21:00,35.8,14.3,30.08,East,85,3.5,3.5,41,0.00,CLR,,0.00,WeatherDisplay:10.37,2013-02-27 08:21:00,
2013-02-27 03:26:00,35.6,14.7,30.08,ENE,69,3.5,0.0,42,0.04,RA,,0.04,WeatherDisplay:10.37,2013-02-27 08:26:00,
2013-02-27 03:31:00,36.0,17.7,30.08,East,95,3.5,3.5,47,0.04,RA,,0.04,WeatherDisplay:10.37,2013-02-27 08:31:00,
2013-02-27 03:36:00,36.0,18.6,30.08,East,95,3.5,3.5,49,0.04,CLR,,0.04,WeatherDisplay:10.37,2013-02-27 08:36:00,
2013-02-27 03:41:00,36.0,19.1,30.08,East,95,2.3,0.0,50,0.04,CLR,,0.04,WeatherDisplay:10.37,2013-02-27 08:41:00,
2013-02-27 03:46:00,36.1,19.3,30.08,East,95,0.0,0.0,50,0.04,CLR,,0.04,WeatherDisplay:10.37,2013-02-27 08:46:00,
2013-02-27 03:51:00,36.3,19.9,30.08,East,95,2.3,0.0,51,0.04,CLR,,0.04,WeatherDisplay:10.37,2013-02-27 08:51:00,
2013-02-27 03:56:00,36.5,20.1,30.08,East,95,2.3,0.0,51,0.04,CLR,,0.04,WeatherDisplay:10.37,2013-02-27 08:56:00,
2013-02-27 04:01:00,36.7,20.7,30.08,East,95,2.3,0.0,52,0.04,CLR,,0.04,WeatherDisplay:10.37,2013-02-27 09:01:00,
2013-02-27 04:06:00,36.7,20.7,30.08,East,95,3.5,3.5,52,0.04,CLR,,0.04,WeatherDisplay:10.37,2013-02-27 09:06:00,
2013-02-27 04:11:00,37.0,21.5,30.08,ENE,76,3.5,3.5,53,0.04,CLR,,0.04,WeatherDisplay:10.37,2013-02-27 09:11:00,
2013-02-27 04:16:00,37.0,21.5,30.08,ENE,76,3.5,3.5,53,0.04,CLR,,0.04,WeatherDisplay:10.37,2013-02-27 09:16:00,
2013-02-27 04:21:00,37.0,21.5,30.08,East,79,5.8,5.8,53,0.04,CLR,,0.04,WeatherDisplay:10.37,2013-02-27 09:21:00,
2013-02-27 04:26:00,37.0,21.5,30.05,East,94,3.5,3.5,53,0.00,CLR,,0.04,WeatherDisplay:10.37,2013-02-27 09:26:00,
2013-02-27 04:31:00,37.2,22.1,30.05,East,95,0.0,0.0,54,0.00,CLR,,0.04,WeatherDisplay:10.37,2013-02-27 09:31:00,
2013-02-27 04:36:00,37.2,22.1,30.05,ESE,112,3.5,3.5,54,0.00,CLR,,0.04,WeatherDisplay:10.37,2013-02-27 09:36:00,
2013-02-27 04:41:00,37.4,22.3,30.08,ENE,74,3.5,3.5,54,0.00,CLR,,0.04,WeatherDisplay:10.37,2013-02-27 09:41:00,
2013-02-27 04:46:00,37.4,22.7,30.08,East,82,3.5,3.5,55,0.00,CLR,,0.04,WeatherDisplay:10.37,2013-02-27 09:46:00,
2013-02-27 04:51:00,37.4,22.7,30.08,East,87,3.5,3.5,55,0.04,RA,,0.08,WeatherDisplay:10.37,2013-02-27 09:51:00,
2013-02-27 04:56:00,37.4,22.7,30.08,East,93,3.5,3.5,55,0.04,RA,,0.08,WeatherDisplay:10.37,2013-02-27 09:56:00,
2013-02-27 05:01:00,37.4,23.1,30.08,NE,55,3.5,3.5,56,0.04,,,0.08,WeatherDisplay:10.37,2013-02-27 10:01:00,
2013-02-27 05:06:00,37.2,22.9,30.08,East,88,5.8,5.8,56,0.08,RA,,0.12,WeatherDisplay:10.37,2013-02-27 10:06:00,
2013-02-27 05:11:00,37.0,22.8,30.05,East,79,3.5,3.6,56,0.08,RA,,0.12,WeatherDisplay:10.37,2013-02-27 10:11:00,
2013-02-27 05:17:00,36.9,23.4,30.05,ESE,105,3.5,3.5,58,0.08,CLR,,0.12,WeatherDisplay:10.37,2013-02-27 10:17:00,
2013-02-27 05:22:00,37.0,24.4,30.05,East,88,4.0,4.0,60,0.12,RA,,0.16,WeatherDisplay:10.37,2013-02-27 10:22:00,
2013-02-27 05:27:00,37.2,25.4,30.05,East,79,3.5,3.5,62,0.12,RA,,0.16,WeatherDisplay:10.37,2013-02-27 10:27:00,
2013-02-27 05:32:00,37.2,25.8,30.05,ENE,69,3.5,4.0,63,0.12,,,0.16,WeatherDisplay:10.37,2013-02-27 10:32:00,
2013-02-27 05:37:00,37.6,27.6,30.05,ENE,75,3.5,3.5,67,0.12,CLR,,0.16,WeatherDisplay:10.37,2013-02-27 10:37:00,
2013-02-27 05:42:00,37.6,27.6,30.05,ENE,78,3.5,3.5,67,0.12,CLR,,0.16,WeatherDisplay:10.37,2013-02-27 10:42:00,
2013-02-27 05:47:00,37.8,28.5,30.05,ENE,60,2.3,2.3,69,0.12,CLR,,0.16,WeatherDisplay:10.37,2013-02-27 10:47:00,
2013-02-27 05:52:00,38.1,30.2,30.02,East,95,6.9,6.9,73,0.08,CLR,,0.16,WeatherDisplay:10.37,2013-02-27 10:52:00,
2013-02-27 05:57:00,38.1,30.6,30.02,ENE,76,3.5,3.5,74,0.12,RA,,0.20,WeatherDisplay:10.37,2013-02-27 10:57:00,
2013-02-27 06:03:00,38.5,31.9,30.02,East,87,3.5,3.5,77,0.08,,,0.20,WeatherDisplay:10.37,2013-02-27 11:03:00,
2013-02-27 06:08:00,38.7,32.7,30.02,ESE,109,3.5,3.5,79,0.08,CLR,,0.20,WeatherDisplay:10.37,2013-02-27 11:08:00,
2013-02-27 06:13:00,38.8,32.9,30.02,ENE,61,4.6,4.6,79,0.08,CLR,,0.20,WeatherDisplay:10.37,2013-02-27 11:13:00,
2013-02-27 06:18:00,39.0,33.4,30.02,ENE,62,5.8,5.8,80,0.08,CLR,,0.20,WeatherDisplay:10.37,2013-02-27 11:18:00,
2013-02-27 06:23:00,39.4,34.0,30.02,East,96,3.5,3.6,81,0.04,CLR,,0.20,WeatherDisplay:10.37,2013-02-27 11:23:00,
2013-02-27 06:28:00,39.6,34.2,30.02,East,91,4.6,4.6,81,0.04,CLR,,0.20,WeatherDisplay:10.37,2013-02-27 11:28:00,
2013-02-27 06:33:00,39.7,34.7,30.02,ESE,112,5.8,5.8,82,0.04,CLR,,0.20,WeatherDisplay:10.37,2013-02-27 11:33:00,
2013-02-27 06:38:00,39.9,35.2,29.99,ENE,57,5.8,5.8,83,0.04,CLR,,0.20,WeatherDisplay:10.37,2013-02-27 11:38:00,
2013-02-27 06:43:00,40.3,35.5,29.99,ESE,108,5.8,5.8,83,0.04,CLR,,0.20,WeatherDisplay:10.37,2013-02-27 11:43:00,
2013-02-27 06:48:00,40.6,36.2,29.99,NE,48,5.8,5.8,84,0.04,CLR,,0.20,WeatherDisplay:10.37,2013-02-27 11:48:00,
2013-02-27 06:53:00,40.8,36.7,29.99,East,100,9.2,9.2,85,0.00,CLR,,0.20,WeatherDisplay:10.37,2013-02-27 11:53:00,
2013-02-27 06:58:00,41.0,36.5,29.99,East,97,4.0,4.0,84,0.04,RA,,0.24,WeatherDisplay:10.37,2013-02-27 11:58:00,
2013-02-27 07:03:00,41.2,37.0,29.99,East,83,5.8,5.8,85,0.04,RA,,0.24,WeatherDisplay:10.37,2013-02-27 12:03:00,
2013-02-27 07:08:00,41.2,37.0,29.99,ENE,78,3.5,4.0,85,0.04,CLR,,0.24,WeatherDisplay:10.37,2013-02-27 12:08:00,
2013-02-27 07:13:00,41.4,37.2,29.99,ESE,119,3.6,3.6,85,0.04,CLR,,0.24,WeatherDisplay:10.37,2013-02-27 12:13:00,
2013-02-27 07:18:00,41.4,37.2,29.99,ESE,117,5.8,5.8,85,0.04,CLR,,0.24,WeatherDisplay:10.37,2013-02-27 12:18:00,
2013-02-27 07:23:00,41.5,37.4,29.99,East,81,5.8,5.8,85,0.04,CLR,,0.24,WeatherDisplay:10.37,2013-02-27 12:23:00,
2013-02-27 07:28:00,41.4,36.9,29.99,East,89,5.8,5.8,84,0.04,CLR,,0.24,WeatherDisplay:10.37,2013-02-27 12:28:00,
2013-02-27 07:33:00,41.5,37.1,29.99,East,101,5.8,5.8,84,0.04,CLR,,0.24,WeatherDisplay:10.37,2013-02-27 12:33:00,
2013-02-27 07:38:00,41.7,37.5,29.99,East,92,3.6,3.6,85,0.04,CLR,,0.24,WeatherDisplay:10.37,2013-02-27 12:38:00,
2013-02-27 07:43:00,41.7,37.5,29.99,ENE,72,6.9,6.9,85,0.08,RA,,0.28,WeatherDisplay:10.37,2013-02-27 12:43:00,
2013-02-27 07:48:00,41.7,36.9,29.99,East,79,6.3,6.3,83,0.08,RA,,0.28,WeatherDisplay:10.37,2013-02-27 12:48:00,
2013-02-27 07:53:00,41.5,36.5,29.96,ENE,66,6.9,6.9,82,0.08,CLR,,0.28,WeatherDisplay:10.37,2013-02-27 12:53:00,
2013-02-27 07:58:00,41.7,36.9,29.96,ENE,77,6.9,6.9,83,0.04,CLR,,0.28,WeatherDisplay:10.37,2013-02-27 12:58:00,
2013-02-27 08:03:00,41.9,37.1,29.96,East,84,5.8,5.8,83,0.04,CLR,,0.28,WeatherDisplay:10.37,2013-02-27 13:03:00,
2013-02-27 08:08:00,41.7,36.6,29.96,East,93,5.8,5.8,82,0.04,CLR,,0.28,WeatherDisplay:10.37,2013-02-27 13:08:00,
2013-02-27 08:13:00,41.7,36.3,29.96,ENE,75,5.8,5.8,81,0.04,CLR,,0.28,WeatherDisplay:10.37,2013-02-27 13:13:00,
2013-02-27 08:18:00,41.7,36.3,29.96,East,97,5.8,5.8,81,0.04,CLR,,0.28,WeatherDisplay:10.37,2013-02-27 13:18:00,
2013-02-27 08:23:00,41.5,35.8,29.96,East,100,7.6,7.6,80,0.04,CLR,,0.28,WeatherDisplay:10.37,2013-02-27 13:23:00,
2013-02-27 08:28:00,41.5,35.8,29.96,East,88,5.8,5.8,80,0.04,CLR,,0.28,WeatherDisplay:10.37,2013-02-27 13:28:00,
2013-02-27 08:33:00,41.5,35.5,29.96,East,91,5.8,5.8,79,0.04,CLR,,0.28,WeatherDisplay:10.37,2013-02-27 13:33:00,
2013-02-27 08:38:00,41.7,36.0,29.96,East,97,5.8,5.8,80,0.04,CLR,,0.28,WeatherDisplay:10.37,2013-02-27 13:38:00,
2013-02-27 08:43:00,41.7,35.4,29.93,East,100,8.1,8.1,78,0.00,CLR,,0.28,WeatherDisplay:10.37,2013-02-27 13:43:00,
2013-02-27 08:48:00,41.9,36.2,29.93,East,90,5.8,5.8,80,0.04,RA,,0.31,WeatherDisplay:10.37,2013-02-27 13:48:00,
2013-02-27 08:53:00,41.7,35.4,29.93,East,96,5.8,5.8,78,0.04,RA,,0.31,WeatherDisplay:10.37,2013-02-27 13:53:00,
2013-02-27 08:58:00,41.7,34.4,29.93,ESE,106,5.8,5.8,75,0.04,CLR,,0.31,WeatherDisplay:10.37,2013-02-27 13:58:00,
2013-02-27 09:03:00,41.7,34.4,29.93,ESE,107,3.5,4.0,75,0.04,CLR,,0.31,WeatherDisplay:10.37,2013-02-27 14:03:00,
2013-02-27 09:08:00,41.5,33.9,29.93,SE,133,8.1,8.1,74,0.04,CLR,,0.31,WeatherDisplay:10.37,2013-02-27 14:08:00,
2013-02-27 09:13:00,41.7,34.7,29.93,ESE,105,9.2,9.2,76,0.04,CLR,,0.31,WeatherDisplay:10.37,2013-02-27 14:13:00,
2013-02-27 09:18:00,41.7,33.4,29.93,ESE,111,5.8,5.8,72,0.04,CLR,,0.31,WeatherDisplay:10.37,2013-02-27 14:18:00,
2013-02-27 09:23:00,41.7,32.7,29.93,East,85,8.1,8.1,70,0.04,CLR,,0.31,WeatherDisplay:10.37,2013-02-27 14:23:00,
2013-02-27 09:28:00,41.5,30.6,29.93,NE,55,8.1,8.1,65,0.12,RA,,0.39,WeatherDisplay:10.37,2013-02-27 14:28:00,
2013-02-27 09:33:00,41.4,29.7,29.93,East,85,5.8,5.8,63,0.12,RA,,0.39,WeatherDisplay:10.37,2013-02-27 14:33:00,
2013-02-27 09:38:00,41.2,28.7,29.90,SE,146,5.8,5.8,61,0.12,,,0.39,WeatherDisplay:10.37,2013-02-27 14:38:00,
2013-02-27 09:43:00,41.4,30.1,29.90,East,91,9.2,9.2,64,0.12,CLR,,0.39,WeatherDisplay:10.37,2013-02-27 14:43:00,
2013-02-27 09:48:00,41.4,30.5,29.90,East,93,5.8,5.8,65,0.08,CLR,,0.39,WeatherDisplay:10.37,2013-02-27 14:48:00,
2013-02-27 09:53:00,41.4,28.9,29.90,ESE,104,8.1,8.1,61,0.08,CLR,,0.39,WeatherDisplay:10.37,2013-02-27 14:53:00,
2013-02-27 09:58:00,41.4,28.5,29.90,East,94,5.8,5.8,60,0.12,RA,,0.43,WeatherDisplay:10.37,2013-02-27 14:58:00,
2013-02-27 10:03:00,41.5,27.8,29.90,ESE,112,6.9,6.9,58,0.12,RA,,0.43,WeatherDisplay:10.37,2013-02-27 15:03:00,
2013-02-27 10:08:00,41.5,26.1,29.90,ESE,105,8.1,8.1,54,0.12,,,0.43,WeatherDisplay:10.37,2013-02-27 15:08:00,
2013-02-27 10:13:00,41.5,25.2,29.90,ESE,118,9.2,9.2,52,0.12,CLR,,0.43,WeatherDisplay:10.37,2013-02-27 15:13:00,
2013-02-27 10:18:00,41.4,25.0,29.90,ESE,105,8.1,8.1,52,0.12,CLR,,0.43,WeatherDisplay:10.37,2013-02-27 15:18:00,
2013-02-27 10:23:00,41.2,24.4,29.90,ESE,105,8.1,8.1,51,0.12,CLR,,0.43,WeatherDisplay:10.37,2013-02-27 15:23:00,
2013-02-27 10:28:00,41.2,24.4,29.90,ENE,62,8.1,8.1,51,0.04,CLR,,0.43,WeatherDisplay:10.37,2013-02-27 15:28:00,
2013-02-27 10:33:00,41.2,24.4,29.90,ESE,114,8.1,8.1,51,0.04,CLR,,0.43,WeatherDisplay:10.37,2013-02-27 15:33:00,
2013-02-27 10:38:00,41.2,23.9,29.87,SE,143,9.2,9.2,50,0.08,RA,,0.47,WeatherDisplay:10.37,2013-02-27 15:38:00,
2013-02-27 10:43:00,41.0,23.8,29.87,East,89,8.1,8.1,50,0.08,RA,,0.47,WeatherDisplay:10.37,2013-02-27 15:43:00,
2013-02-27 10:48:00,41.0,23.8,29.87,East,98,9.2,9.2,50,0.08,CLR,,0.47,WeatherDisplay:10.37,2013-02-27 15:48:00,
2013-02-27 10:53:00,40.8,23.6,29.87,ENE,78,8.1,8.1,50,0.08,CLR,,0.47,WeatherDisplay:10.37,2013-02-27 15:53:00,
2013-02-27 10:58:00,40.8,23.6,29.87,ESE,107,9.2,9.2,50,0.04,CLR,,0.47,WeatherDisplay:10.37,2013-02-27 15:58:00,
2013-02-27 11:03:00,40.8,23.6,29.87,ESE,121,8.1,8.1,50,0.04,CLR,,0.47,WeatherDisplay:10.37,2013-02-27 16:03:00,
2013-02-27 11:08:00,40.6,23.4,29.87,ESE,104,8.1,8.1,50,0.04,CLR,,0.47,WeatherDisplay:10.37,2013-02-27 16:08:00,
2013-02-27 11:13:00,41.0,24.2,29.87,East,85,11.5,11.5,51,0.04,CLR,,0.47,WeatherDisplay:10.37,2013-02-27 16:13:00,
2013-02-27 11:18:00,41.0,23.8,29.87,ESE,112,8.1,8.1,50,0.08,RA,,0.51,WeatherDisplay:10.37,2013-02-27 16:18:00,
2013-02-27 11:23:00,41.0,23.8,29.84,ESE,107,5.8,5.8,50,0.08,RA,,0.51,WeatherDisplay:10.37,2013-02-27 16:23:00,
2013-02-27 11:28:00,41.2,23.9,29.84,SE,140,8.1,8.1,50,0.08,CLR,,0.51,WeatherDisplay:10.37,2013-02-27 16:28:00,
2013-02-27 11:33:00,41.0,23.3,29.84,ESE,104,11.5,11.5,49,0.08,CLR,,0.51,WeatherDisplay:10.37,2013-02-27 16:33:00,
2013-02-27 11:38:00,41.0,23.8,29.84,East,99,9.2,9.2,50,0.04,CLR,,0.51,WeatherDisplay:10.37,2013-02-27 16:38:00,
2013-02-27 11:43:00,41.0,23.8,29.84,ENE,67,8.1,8.1,50,0.04,CLR,,0.51,WeatherDisplay:10.37,2013-02-27 16:43:00,
2013-02-27 11:48:00,40.8,24.1,29.84,East,83,9.2,9.2,51,0.04,CLR,,0.51,WeatherDisplay:10.37,2013-02-27 16:48:00,
2013-02-27 11:53:00,41.0,23.8,29.84,East,87,6.9,6.9,50,0.04,CLR,,0.51,WeatherDisplay:10.37,2013-02-27 16:53:00,
2013-02-27 11:58:00,41.0,24.2,29.84,East,101,8.1,8.1,51,0.04,CLR,,0.51,WeatherDisplay:10.37,2013-02-27 16:58:00,
2013-02-27 12:03:00,41.2,24.4,29.84,East,80,11.5,11.5,51,0.08,RA,,0.55,WeatherDisplay:10.37,2013-02-27 17:03:00,
2013-02-27 12:08:00,41.2,24.4,29.81,ESE,111,5.8,5.8,51,0.08,RA,,0.55,WeatherDisplay:10.37,2013-02-27 17:08:00,
2013-02-27 12:13:00,41.0,23.8,29.81,East,90,9.2,9.2,50,0.08,,,0.55,WeatherDisplay:10.37,2013-02-27 17:13:00,
2013-02-27 12:18:00,41.0,23.8,29.81,ESE,123,5.8,5.8,50,0.04,CLR,,0.55,WeatherDisplay:10.37,2013-02-27 17:18:00,
2013-02-27 12:23:00,40.8,23.6,29.81,ENE,65,9.2,9.2,50,0.04,CLR,,0.55,WeatherDisplay:10.37,2013-02-27 17:23:00,
2013-02-27 12:28:00,40.6,23.4,29.81,East,98,5.8,5.8,50,0.04,CLR,,0.55,WeatherDisplay:10.37,2013-02-27 17:28:00,
2013-02-27 12:33:00,40.6,23.4,29.81,ESE,114,8.1,8.1,50,0.04,CLR,,0.55,WeatherDisplay:10.37,2013-02-27 17:33:00,
2013-02-27 12:38:00,40.5,23.3,29.81,ESE,115,11.5,11.5,50,0.08,RA,,0.59,WeatherDisplay:10.37,2013-02-27 17:38:00,
2013-02-27 12:43:00,40.5,23.3,29.81,ESE,107,9.2,9.2,50,0.08,RA,,0.59,WeatherDisplay:10.37,2013-02-27 17:43:00,
2013-02-27 12:48:00,40.5,23.3,29.81,ENE,63,9.2,9.2,50,0.08,,,0.59,WeatherDisplay:10.37,2013-02-27 17:48:00,
2013-02-27 12:53:00,40.3,23.1,29.81,East,84,8.1,8.1,50,0.08,CLR,,0.59,WeatherDisplay:10.37,2013-02-27 17:53:00,
2013-02-27 12:58:00,39.9,22.8,29.81,ENE,71,9.2,9.2,50,0.08,CLR,,0.59,WeatherDisplay:10.37,2013-02-27 17:58:00,
2013-02-27 13:03:00,39.9,22.8,29.81,ESE,107,6.9,6.9,50,0.04,CLR,,0.59,WeatherDisplay:10.37,2013-02-27 18:03:00,
2013-02-27 13:08:00,39.9,22.8,29.81,ENE,67,5.8,5.8,50,0.04,CLR,,0.59,WeatherDisplay:10.37,2013-02-27 18:08:00,
2013-02-27 13:13:00,39.7,22.6,29.78,ESE,104,9.2,9.2,50,0.04,CLR,,0.59,WeatherDisplay:10.37,2013-02-27 18:13:00,
2013-02-27 13:18:00,39.6,22.4,29.78,ESE,115,8.1,8.1,50,0.04,CLR,,0.59,WeatherDisplay:10.37,2013-02-27 18:18:00,
2013-02-27 13:23:00,39.4,22.3,29.78,ESE,106,8.1,8.1,50,0.04,CLR,,0.59,WeatherDisplay:10.37,2013-02-27 18:23:00,
2013-02-27 13:28:00,39.4,22.3,29.78,SSE,156,8.1,8.1,50,0.04,CLR,,0.59,WeatherDisplay:10.37,2013-02-27 18:28:00,
2013-02-27 13:33:00,39.4,22.3,29.78,ENE,66,10.4,10.4,50,0.08,RA,,0.63,WeatherDisplay:10.37,2013-02-27 18:33:00,
2013-02-27 13:39:00,39.2,22.1,29.78,East,96,8.1,8.1,50,0.04,RA,,0.63,WeatherDisplay:10.37,2013-02-27 18:39:00,
2013-02-27 13:44:00,39.2,22.1,29.78,ENE,75,5.8,5.8,50,0.04,,,0.63,WeatherDisplay:10.37,2013-02-27 18:44:00,
2013-02-27 13:49:00,39.2,22.1,29.78,East,97,8.1,8.1,50,0.04,CLR,,0.63,WeatherDisplay:10.37,2013-02-27 18:49:00,
2013-02-27 13:54:00,39.2,22.1,29.78,East,96,5.8,5.8,50,0.04,CLR,,0.63,WeatherDisplay:10.37,2013-02-27 18:54:00,
2013-02-27 13:59:00,39.2,22.1,29.78,East,95,8.1,8.1,50,0.04,CLR,,0.63,WeatherDisplay:10.37,2013-02-27 18:59:00,
2013-02-27 14:04:00,39.0,22.4,29.78,NE,50,5.8,5.8,51,0.04,CLR,,0.63,WeatherDisplay:10.37,2013-02-27 19:04:00,
2013-02-27 14:09:00,39.0,22.4,29.78,SE,145,9.2,9.2,51,0.08,RA,,0.67,WeatherDisplay:10.37,2013-02-27 19:09:00,
2013-02-27 14:14:00,38.8,22.2,29.78,ESE,102,5.8,6.3,51,0.08,RA,,0.67,WeatherDisplay:10.37,2013-02-27 19:14:00,
2013-02-27 14:19:00,38.8,22.2,29.78,ENE,77,8.1,8.1,51,0.08,RA,,0.67,WeatherDisplay:10.37,2013-02-27 19:19:00,
2013-02-27 14:24:00,38.7,22.1,29.78,ESE,113,8.1,8.1,51,0.08,CLR,,0.67,WeatherDisplay:10.37,2013-02-27 19:24:00,
2013-02-27 14:29:00,38.7,22.1,29.78,East,93,5.8,7.2,51,0.08,CLR,,0.67,WeatherDisplay:10.37,2013-02-27 19:29:00,
2013-02-27 14:34:00,38.7,22.5,29.78,East,93,8.1,8.1,52,0.04,CLR,,0.67,WeatherDisplay:10.37,2013-02-27 19:34:00,
2013-02-27 14:39:00,38.5,22.4,29.78,ESE,102,9.2,9.2,52,0.04,CLR,,0.67,WeatherDisplay:10.37,2013-02-27 19:39:00,
2013-02-27 14:44:00,38.3,22.2,29.78,ENE,62,5.8,5.8,52,0.08,RA,,0.71,WeatherDisplay:10.37,2013-02-27 19:44:00,
2013-02-27 14:49:00,38.3,22.2,29.78,ESE,108,6.3,6.3,52,0.08,RA,,0.71,WeatherDisplay:10.37,2013-02-27 19:49:00,
2013-02-27 14:54:00,38.1,22.0,29.78,ENE,77,8.1,8.1,52,0.08,CLR,,0.71,WeatherDisplay:10.37,2013-02-27 19:54:00,
2013-02-27 14:59:00,38.1,22.0,29.78,East,79,5.8,5.8,52,0.08,CLR,,0.71,WeatherDisplay:10.37,2013-02-27 19:59:00,
2013-02-27 15:04:00,37.9,21.9,29.78,ENE,69,5.8,5.8,52,0.08,CLR,,0.71,WeatherDisplay:10.37,2013-02-27 20:04:00,
2013-02-27 15:09:00,37.8,21.2,29.78,East,98,5.8,5.8,51,0.04,CLR,,0.71,WeatherDisplay:10.37,2013-02-27 20:09:00,
2013-02-27 15:14:00,37.4,20.9,29.75,ESE,118,8.1,8.1,51,0.04,CLR,,0.71,WeatherDisplay:10.37,2013-02-27 20:14:00,
2013-02-27 15:19:00,37.0,21.0,29.75,ESE,104,5.8,6.3,52,0.04,CLR,,0.75,WeatherDisplay:10.37,2013-02-27 20:19:00,
2013-02-27 15:24:00,36.9,20.9,29.75,East,81,6.9,6.9,52,0.08,RA,,0.75,WeatherDisplay:10.37,2013-02-27 20:24:00,
2013-02-27 15:29:00,36.9,21.3,29.75,East,92,5.8,5.8,53,0.08,RA,,0.75,WeatherDisplay:10.37,2013-02-27 20:29:00,
2013-02-27 15:34:00,36.9,21.7,29.75,East,81,5.8,5.8,54,0.08,CLR,,0.75,WeatherDisplay:10.37,2013-02-27 20:34:00,
2013-02-27 15:39:00,36.9,22.2,29.75,East,92,3.5,4.0,55,0.08,CLR,,0.75,WeatherDisplay:10.37,2013-02-27 20:39:00,
2013-02-27 15:44:00,36.7,22.0,29.75,East,98,5.8,5.8,55,0.04,CLR,,0.75,WeatherDisplay:10.37,2013-02-27 20:44:00,
2013-02-27 15:49:00,36.7,22.9,29.75,East,92,3.5,3.5,57,0.04,CLR,,0.75,WeatherDisplay:10.37,2013-02-27 20:49:00,
2013-02-27 15:54:00,36.9,24.3,29.75,East,87,5.8,5.8,60,0.08,RA,,0.79,WeatherDisplay:10.37,2013-02-27 20:54:00,
2013-02-27 15:59:00,36.9,24.3,29.75,ENE,65,4.6,4.6,60,0.08,RA,,0.79,WeatherDisplay:10.37,2013-02-27 20:59:00,
2013-02-27 16:04:00,36.7,23.7,29.75,ENE,71,6.9,6.9,59,0.08,CLR,,0.79,WeatherDisplay:10.37,2013-02-27 21:04:00,
2013-02-27 16:09:00,36.3,23.3,29.75,East,91,5.8,5.8,59,0.08,CLR,,0.79,WeatherDisplay:10.37,2013-02-27 21:09:00,
2013-02-27 16:14:00,36.1,24.0,29.75,SE,129,5.8,5.8,61,0.08,CLR,,0.79,WeatherDisplay:10.37,2013-02-27 21:14:00,
2013-02-27 16:19:00,36.3,26.4,29.75,East,79,8.1,8.1,67,0.08,RA,,0.83,WeatherDisplay:10.37,2013-02-27 21:19:00,
2013-02-27 16:24:00,36.5,28.7,29.72,ENE,77,5.8,5.8,73,0.08,RA,,0.83,WeatherDisplay:10.37,2013-02-27 21:24:00,
2013-02-27 16:29:00,36.7,29.5,29.72,ENE,76,3.5,3.5,75,0.08,CLR,,0.83,WeatherDisplay:10.37,2013-02-27 21:29:00,
2013-02-27 16:34:00,36.5,29.3,29.72,East,86,5.8,5.8,75,0.08,CLR,,0.83,WeatherDisplay:10.37,2013-02-27 21:34:00,
2013-02-27 16:39:00,36.5,28.3,29.72,ENE,61,10.4,10.4,72,0.08,CLR,,0.83,WeatherDisplay:10.37,2013-02-27 21:39:00,
2013-02-27 16:44:00,36.3,24.9,29.72,ENE,61,11.5,11.5,63,0.12,RA,,0.87,WeatherDisplay:10.37,2013-02-27 21:44:00,
2013-02-27 16:49:00,35.8,22.4,29.72,ENE,68,5.8,5.8,58,0.12,RA,,0.87,WeatherDisplay:10.37,2013-02-27 21:49:00,
2013-02-27 16:54:00,35.6,22.7,29.72,East,88,4.6,4.6,59,0.08,CLR,,0.87,WeatherDisplay:10.37,2013-02-27 21:54:00,
2013-02-27 16:59:00,35.6,23.9,29.72,East,98,5.8,5.8,62,0.08,CLR,,0.87,WeatherDisplay:10.37,2013-02-27 21:59:00,
2013-02-27 17:04:00,35.6,25.7,29.72,ESE,107,3.5,3.6,67,0.08,CLR,,0.87,WeatherDisplay:10.37,2013-02-27 22:04:00,
2013-02-27 17:09:00,35.8,27.3,29.72,East,83,5.8,5.8,71,0.08,CLR,,0.87,WeatherDisplay:10.37,2013-02-27 22:09:00,
2013-02-27 17:14:00,36.0,29.1,29.72,ENE,74,5.8,5.8,76,0.08,CLR,,0.87,WeatherDisplay:10.37,2013-02-27 22:14:00,
2013-02-27 17:19:00,36.3,30.1,29.72,East,93,8.1,8.1,78,0.04,CLR,,0.87,WeatherDisplay:10.37,2013-02-27 22:19:00,
2013-02-27 17:24:00,36.1,30.3,29.72,East,87,5.8,5.8,79,0.04,CLR,,0.87,WeatherDisplay:10.37,2013-02-27 22:24:00,
2013-02-27 17:29:00,36.3,31.0,29.72,ESE,105,4.6,4.6,81,0.04,CLR,,0.87,WeatherDisplay:10.37,2013-02-27 22:29:00,
2013-02-27 17:34:00,36.1,31.2,29.72,NE,46,3.5,4.0,82,0.04,CLR,,0.87,WeatherDisplay:10.37,2013-02-27 22:34:00,
2013-02-27 17:39:00,36.3,31.9,29.72,ESE,116,5.8,5.8,84,0.04,CLR,,0.87,WeatherDisplay:10.37,2013-02-27 22:39:00,
2013-02-27 17:44:00,36.5,32.7,29.72,East,87,3.5,3.5,86,0.00,CLR,,0.87,WeatherDisplay:10.37,2013-02-27 22:44:00,
2013-02-27 17:49:00,36.5,32.7,29.72,NE,38,5.8,5.8,86,0.00,CLR,,0.87,WeatherDisplay:10.37,2013-02-27 22:49:00,
2013-02-27 17:54:00,36.5,32.7,29.72,ENE,64,5.8,5.8,86,0.04,RA,,0.91,WeatherDisplay:10.37,2013-02-27 22:54:00,
2013-02-27 17:59:00,36.7,33.2,29.72,SE,144,4.9,4.9,87,0.04,RA,,0.91,WeatherDisplay:10.37,2013-02-27 22:59:00,
2013-02-27 18:04:00,36.7,33.5,29.72,ENE,62,5.8,5.8,88,0.04,CLR,,0.91,WeatherDisplay:10.37,2013-02-27 23:04:00,
2013-02-27 18:09:00,36.7,33.5,29.72,East,86,3.5,4.5,88,0.04,CLR,,0.91,WeatherDisplay:10.37,2013-02-27 23:09:00,
2013-02-27 18:14:00,36.7,33.5,29.69,East,86,5.8,5.8,88,0.04,CLR,,0.91,WeatherDisplay:10.37,2013-02-27 23:14:00,
2013-02-27 18:19:00,37.0,34.4,29.69,ENE,74,5.8,5.8,90,0.04,CLR,,0.91,WeatherDisplay:10.37,2013-02-27 23:19:00,
2013-02-27 18:24:00,37.2,34.8,29.69,East,88,5.8,5.8,91,0.04,CLR,,0.91,WeatherDisplay:10.37,2013-02-27 23:24:00,
2013-02-27 18:29:00,37.2,34.8,29.69,ESE,113,5.8,5.8,91,0.04,CLR,,0.91,WeatherDisplay:10.37,2013-02-27 23:29:00,
2013-02-27 18:34:00,37.4,35.0,29.69,NE,53,5.8,5.8,91,0.04,CLR,,0.91,WeatherDisplay:10.37,2013-02-27 23:34:00,
2013-02-27 18:39:00,37.4,35.3,29.69,East,81,5.8,5.8,92,0.04,CLR,,0.91,WeatherDisplay:10.37,2013-02-27 23:39:00,
2013-02-27 18:44:00,37.4,35.3,29.69,East,79,3.5,3.6,92,0.04,CLR,,0.91,WeatherDisplay:10.37,2013-02-27 23:44:00,
2013-02-27 18:49:00,37.4,35.0,29.69,East,99,6.9,6.9,91,0.08,RA,,0.94,WeatherDisplay:10.37,2013-02-27 23:49:00,
2013-02-27 18:54:00,37.4,35.3,29.69,East,89,4.6,4.6,92,0.04,RA,,0.94,WeatherDisplay:10.37,2013-02-27 23:54:00,
2013-02-27 18:59:00,37.4,35.0,29.69,ENE,72,4.6,4.6,91,0.04,,,0.94,WeatherDisplay:10.37,2013-02-27 23:59:00,
2013-02-27 19:04:00,37.2,35.1,29.69,East,97,3.5,3.5,92,0.04,CLR,,0.94,WeatherDisplay:10.37,2013-02-28 00:04:00,
2013-02-27 19:09:00,37.4,35.3,29.69,NE,54,4.6,4.6,92,0.04,CLR,,0.94,WeatherDisplay:10.37,2013-02-28 00:09:00,
2013-02-27 19:14:00,37.6,35.7,29.69,ENE,71,3.5,4.5,93,0.04,CLR,,0.94,WeatherDisplay:10.37,2013-02-28 00:14:00,
2013-02-27 19:19:00,37.8,35.6,29.69,ENE,66,3.5,3.5,92,0.04,CLR,,0.94,WeatherDisplay:10.37,2013-02-28 00:19:00,
2013-02-27 19:24:00,37.8,35.6,29.66,East,86,3.5,0.0,92,0.04,CLR,,0.94,WeatherDisplay:10.37,2013-02-28 00:24:00,
2013-02-27 19:29:00,37.9,36.1,29.66,East,83,3.5,3.5,93,0.04,CLR,,0.94,WeatherDisplay:10.37,2013-02-28 00:29:00,
2013-02-27 19:34:00,37.9,36.1,29.66,East,81,3.5,3.5,93,0.04,CLR,,0.94,WeatherDisplay:10.37,2013-02-28 00:34:00,
2013-02-27 19:39:00,37.9,36.1,29.66,East,86,3.5,3.5,93,0.04,CLR,,0.94,WeatherDisplay:10.37,2013-02-28 00:39:00,
2013-02-27 19:44:00,37.9,36.1,29.66,East,89,5.8,5.8,93,0.04,CLR,,0.94,WeatherDisplay:10.37,2013-02-28 00:44:00,
2013-02-27 19:49:00,37.9,36.1,29.66,ENE,63,5.8,5.8,93,0.00,CLR,,0.94,WeatherDisplay:10.37,2013-02-28 00:49:00,
2013-02-27 19:54:00,37.9,36.1,29.66,ENE,71,4.6,4.6,93,0.00,CLR,,0.94,WeatherDisplay:10.37,2013-02-28 00:54:00,
2013-02-27 19:59:00,38.1,36.5,29.63,East,91,4.6,4.9,94,0.04,RA,,0.98,WeatherDisplay:10.37,2013-02-28 00:59:00,
2013-02-27 20:04:00,38.1,36.5,29.63,ESE,122,6.9,6.9,94,0.04,RA,,0.98,WeatherDisplay:10.37,2013-02-28 01:04:00,
2013-02-27 20:09:00,38.1,36.5,29.63,East,83,4.6,4.6,94,0.04,CLR,,0.98,WeatherDisplay:10.37,2013-02-28 01:09:00,
2013-02-27 20:14:00,38.1,36.5,29.63,ENE,73,5.8,5.8,94,0.04,CLR,,0.98,WeatherDisplay:10.37,2013-02-28 01:14:00,
2013-02-27 20:19:00,38.1,36.5,29.63,ENE,57,5.8,5.8,94,0.04,CLR,,0.98,WeatherDisplay:10.37,2013-02-28 01:19:00,
2013-02-27 20:24:00,38.3,36.7,29.63,East,82,3.5,3.6,94,0.04,CLR,,0.98,WeatherDisplay:10.37,2013-02-28 01:24:00,
2013-02-27 20:29:00,38.3,36.7,29.63,East,101,3.5,3.5,94,0.04,CLR,,0.98,WeatherDisplay:10.37,2013-02-28 01:29:00,
2013-02-27 20:34:00,38.3,36.7,29.63,NE,50,5.8,5.8,94,0.04,CLR,,0.98,WeatherDisplay:10.37,2013-02-28 01:34:00,
2013-02-27 20:39:00,38.5,36.9,29.63,East,79,5.8,5.8,94,0.04,CLR,,0.98,WeatherDisplay:10.37,2013-02-28 01:39:00,
2013-02-27 20:44:00,38.5,36.9,29.63,East,96,3.5,3.5,94,0.04,CLR,,0.98,WeatherDisplay:10.37,2013-02-28 01:44:00,
2013-02-27 20:49:00,38.5,36.9,29.63,East,95,5.8,5.8,94,0.04,CLR,,0.98,WeatherDisplay:10.37,2013-02-28 01:49:00,
2013-02-27 20:54:00,38.7,37.1,29.63,East,89,3.5,0.0,94,0.04,CLR,,0.98,WeatherDisplay:10.37,2013-02-28 01:54:00,
2013-02-27 20:59:00,38.7,37.1,29.63,NE,38,3.5,0.0,94,0.00,CLR,,0.98,WeatherDisplay:10.37,2013-02-28 01:59:00,
2013-02-27 21:04:00,38.7,37.1,29.63,North,8,0.0,0.0,94,0.00,CLR,,0.98,WeatherDisplay:10.37,2013-02-28 02:04:00,
2013-02-27 21:09:00,38.7,37.1,29.63,North,8,0.0,0.0,94,0.00,CLR,,0.98,WeatherDisplay:10.37,2013-02-28 02:09:00,
2013-02-27 21:14:00,38.7,37.1,29.63,ESE,109,2.3,0.0,94,0.00,CLR,,0.98,WeatherDisplay:10.37,2013-02-28 02:14:00,
2013-02-27 21:19:00,38.7,37.1,29.63,WSW,256,2.3,0.0,94,0.04,RA,,1.02,WeatherDisplay:10.37,2013-02-28 02:19:00,
2013-02-27 21:24:00,38.7,36.8,29.60,WSW,256,0.0,0.0,93,0.04,RA,,1.02,WeatherDisplay:10.37,2013-02-28 02:24:00,
2013-02-27 21:29:00,38.7,36.8,29.60,WSW,256,0.0,0.0,93,0.04,CLR,,1.02,WeatherDisplay:10.37,2013-02-28 02:29:00,
2013-02-27 21:34:00,38.5,36.6,29.60,WSW,256,0.0,0.0,93,0.04,CLR,,1.02,WeatherDisplay:10.37,2013-02-28 02:34:00,
2013-02-27 21:39:00,38.5,36.6,29.60,WSW,256,2.3,0.0,93,0.04,CLR,,1.02,WeatherDisplay:10.37,2013-02-28 02:39:00,
2013-02-27 21:44:00,38.5,36.4,29.60,WSW,256,0.0,0.0,92,0.04,CLR,,1.02,WeatherDisplay:10.37,2013-02-28 02:44:00,
2013-02-27 21:49:00,38.5,36.4,29.60,WSW,256,2.3,0.0,92,0.04,CLR,,1.02,WeatherDisplay:10.37,2013-02-28 02:49:00,
2013-02-27 21:54:00,38.5,36.4,29.60,WSW,256,2.3,0.0,92,0.04,CLR,,1.02,WeatherDisplay:10.37,2013-02-28 02:54:00,
2013-02-27 21:59:00,38.5,36.4,29.60,ENE,65,3.5,3.5,92,0.04,CLR,,1.02,WeatherDisplay:10.37,2013-02-28 02:59:00,
2013-02-27 22:04:00,38.3,36.2,29.60,ENE,65,0.0,0.0,92,0.04,CLR,,1.02,WeatherDisplay:10.37,2013-02-28 03:04:00,
2013-02-27 22:09:00,38.3,35.9,29.60,SSW,196,0.0,0.0,91,0.04,CLR,,1.02,WeatherDisplay:10.37,2013-02-28 03:09:00,
2013-02-27 22:14:00,38.3,35.9,29.60,SSW,203,2.3,0.0,91,0.04,CLR,,1.02,WeatherDisplay:10.37,2013-02-28 03:14:00,
2013-02-27 22:19:00,38.5,36.4,29.60,NE,48,3.5,0.0,92,0.00,CLR,,1.02,WeatherDisplay:10.37,2013-02-28 03:19:00,
2013-02-27 22:24:00,38.3,35.9,29.60,NNE,25,0.0,0.0,91,0.00,CLR,,1.02,WeatherDisplay:10.37,2013-02-28 03:24:00,
2013-02-27 22:29:00,38.5,36.4,29.57,East,82,2.3,0.0,92,0.00,CLR,,1.02,WeatherDisplay:10.37,2013-02-28 03:29:00,
2013-02-27 22:34:00,38.5,36.4,29.57,West,279,2.3,0.0,92,0.00,CLR,,1.02,WeatherDisplay:10.37,2013-02-28 03:34:00,
2013-02-27 22:39:00,38.5,36.4,29.57,NE,39,0.0,0.0,92,0.00,CLR,,1.02,WeatherDisplay:10.37,2013-02-28 03:39:00,
2013-02-27 22:44:00,38.5,36.1,29.57,SSE,152,3.5,3.5,91,0.00,CLR,,1.02,WeatherDisplay:10.37,2013-02-28 03:44:00,
2013-02-27 22:49:00,38.5,36.1,29.57,NNW,327,3.5,3.5,91,0.00,CLR,,1.02,WeatherDisplay:10.37,2013-02-28 03:49:00,
2013-02-27 22:54:00,38.5,36.1,29.57,NE,42,3.5,0.0,91,0.00,CLR,,1.02,WeatherDisplay:10.37,2013-02-28 03:54:00,
2013-02-27 22:59:00,38.5,36.1,29.57,North,353,3.5,0.0,91,0.00,CLR,,1.02,WeatherDisplay:10.37,2013-02-28 03:59:00,
2013-02-27 23:04:00,38.7,36.3,29.57,West,281,2.3,0.0,91,0.00,CLR,,1.02,WeatherDisplay:10.37,2013-02-28 04:04:00,
2013-02-27 23:09:00,38.5,36.1,29.57,NNE,31,0.0,0.0,91,0.00,CLR,,1.02,WeatherDisplay:10.37,2013-02-28 04:09:00,
2013-02-27 23:14:00,38.5,36.1,29.57,NNW,345,3.5,0.0,91,0.00,CLR,,1.02,WeatherDisplay:10.37,2013-02-28 04:14:00,
2013-02-27 23:19:00,38.7,36.3,29.57,North,6,0.0,0.0,91,0.00,CLR,,1.02,WeatherDisplay:10.37,2013-02-28 04:19:00,
2013-02-27 23:24:00,38.5,36.1,29.57,NNE,15,2.3,0.0,91,0.00,CLR,,1.02,WeatherDisplay:10.37,2013-02-28 04:24:00,
2013-02-27 23:29:00,38.5,36.1,29.57,West,263,4.0,0.0,91,0.00,CLR,,1.02,WeatherDisplay:10.37,2013-02-28 04:29:00,
2013-02-27 23:34:00,38.5,36.1,29.57,NNE,26,3.5,3.5,91,0.00,CLR,,1.02,WeatherDisplay:10.37,2013-02-28 04:34:00,
2013-02-27 23:39:00,38.5,36.1,29.55,NE,39,3.5,3.5,91,0.00,CLR,,1.02,WeatherDisplay:10.37,2013-02-28 04:39:00,
2013-02-27 23:44:00,38.5,36.1,29.55,NNE,20,2.3,0.0,91,0.00,CLR,,1.02,WeatherDisplay:10.37,2013-02-28 04:44:00,
2013-02-27 23:49:00,38.7,36.3,29.55,WSW,258,3.5,3.5,91,0.00,CLR,,1.02,WeatherDisplay:10.37,2013-02-28 04:49:00,
2013-02-27 23:54:00,38.7,36.3,29.55,NNE,19,3.5,3.5,91,0.00,CLR,,1.02,WeatherDisplay:10.37,2013-02-28 04:54:00,
2013-02-27 23:59:00,38.7,36.3,29.55,South,188,0.0,0.0,91,0.00,CLR,,1.02,WeatherDisplay:10.37,2013-02-28 04:59:00,